CW0937 Weather Reports


Display with metric or nautical units.
time (UTC)temp
F
wind
direction
speed
MPH
gust
MPH
rain 1hr
in
rain 24hr
in
rain mn
in
humidity
%
barometer
mb
20200804204526 61 223 1.0 2.0 0.00 0.00 0.00 71 1017.6
20200804204025 61 161 1.0 2.0 0.00 0.00 0.00 71 1017.6
20200804203533 61 161 1.0 2.0 0.00 0.00 0.00 69 1017.7
20200804203024 62 136 1.0 2.0 0.00 0.00 0.00 69 1017.7
20200804202523 63 136 0.0 2.0 0.00 0.00 0.00 65 1017.7
20200804202044 64 179 1.0 2.0 0.00 0.00 0.00 61 1017.8
20200804201532 64 179 1.0 2.0 0.00 0.00 0.00 59 1017.8
20200804201028 64 179 1.0 2.0 0.00 0.00 0.00 61 1017.8
20200804200524 64 146 0.0 2.0 0.00 0.00 0.00 59 1017.8
20200804200018 65 90 1.0 2.0 0.00 0.00 0.00 59 1017.8
20200804195535 65 165 1.0 2.0 0.00 0.00 0.00 58 1017.8
20200804195027 65 179 1.0 2.0 0.00 0.00 0.00 58 1017.7
20200804194526 66 206 1.0 2.0 0.00 0.00 0.00 56 1017.7
20200804194026 65 152 1.0 2.0 0.00 0.00 0.00 57 1017.7
20200804193516 65 46 1.0 2.0 0.00 0.00 0.00 57 1017.6
20200804193029 65 124 1.0 2.0 0.00 0.00 0.00 58 1017.6
20200804192529 66 124 1.0 2.0 0.00 0.00 0.00 55 1017.5
20200804192020 66 113 1.0 2.0 0.00 0.00 0.00 57 1017.7
20200804191518 67 179 1.0 2.0 0.00 0.00 0.00 58 1017.6
20200804191034 67 201 1.0 2.0 0.00 0.00 0.00 56 1017.6
20200804190530 68 269 1.0 2.0 0.00 0.00 0.00 55 1017.7
20200804190023 68 179 1.0 2.0 0.00 0.00 0.00 54 1017.7
20200804185535 68 171 1.0 2.0 0.00 0.00 0.00 54 1017.5
20200804185026 69 234 1.0 3.0 0.00 0.00 0.00 52 1017.6
20200804184522 69 198 2.0 3.0 0.00 0.00 0.00 50 1017.6
20200804184019 69 179 2.0 3.0 0.00 0.00 0.00 49 1017.5
20200804183534 70 198 2.0 3.0 0.00 0.00 0.00 49 1017.6
20200804183024 70 161 1.0 4.0 0.00 0.00 0.00 48 1017.7
20200804182531 71 360 2.0 5.0 0.00 0.00 0.00 46 1017.6
20200804182029 71 179 3.0 5.0 0.00 0.00 0.00 44 1017.6
20200804181521 71 179 1.0 4.0 0.00 0.00 0.00 45 1017.6
20200804181018 72 202 1.0 3.0 0.00 0.00 0.00 44 1017.6
20200804180515 72 234 1.0 5.0 0.00 0.00 0.00 43 1017.6
20200804180024 72 241 2.0 5.0 0.00 0.00 0.00 43 1017.6
20200804175520 73 220 3.0 5.0 0.00 0.00 0.00 41 1017.7
20200804175033 73 229 2.0 4.0 0.00 0.00 0.00 40 1017.7
20200804174518 73 216 2.0 5.0 0.00 0.00 0.00 40 1017.6
20200804174019 73 208 2.0 5.0 0.00 0.00 0.00 39 1017.6
20200804173537 73 192 3.0 4.0 0.00 0.00 0.00 40 1017.6
20200804173030 73 234 1.0 4.0 0.00 0.00 0.00 39 1017.4
20200804172541 74 223 2.0 7.0 0.00 0.00 0.00 38 1017.5
20200804172029 74 206 4.0 8.0 0.00 0.00 0.00 37 1017.5
20200804171526 74 238 4.0 8.0 0.00 0.00 0.00 38 1017.5
20200804171025 74 223 5.0 10.0 0.00 0.00 0.00 37 1017.6
20200804170516 74 287 5.0 10.0 0.00 0.00 0.00 38 1017.6
20200804170027 74 233 4.0 7.0 0.00 0.00 0.00 38 1017.6
20200804165520 74 236 4.0 8.0 0.00 0.00 0.00 38 1017.6
20200804165018 74 243 5.0 9.0 0.00 0.00 0.00 37 1017.6
20200804164535 74 241 3.0 9.0 0.00 0.00 0.00 37 1017.5
20200804164026 75 202 5.0 9.0 0.00 0.00 0.00 35 1017.5
20200804163522 76 201 4.0 9.0 0.00 0.00 0.00 35 1017.6
20200804163034 75 223 4.0 10.0 0.00 0.00 0.00 36 1017.6
20200804162526 75 258 5.0 10.0 0.00 0.00 0.00 36 1017.6
20200804162038 75 227 6.0 9.0 0.00 0.00 0.00 35 1017.6
20200804161531 75 146 1.0 8.0 0.00 0.00 0.00 36 1017.6
20200804161029 75 248 3.0 9.0 0.00 0.00 0.00 34 1017.6
20200804160524 76 229 4.0 9.0 0.00 0.00 0.00 35 1017.7
20200804160039 76 28 2.0 11.0 0.00 0.00 0.00 33 1017.7
20200804155517 76 251 4.0 11.0 0.00 0.00 0.00 36 1017.9
20200804155037 76 262 4.0 10.0 0.00 0.00 0.00 33 1017.9
20200804154531 77 212 5.0 9.0 0.00 0.00 0.00 34 1017.9
20200804154022 77 254 3.0 6.0 0.00 0.00 0.00 35 1017.8
20200804153518 76 309 1.0 6.0 0.00 0.00 0.00 34 1017.8
20200804153024 76 213 3.0 7.0 0.00 0.00 0.00 34 1017.9
20200804152516 76 243 4.0 7.0 0.00 0.00 0.00 35 1018.0
20200804152035 75 23 2.0 5.0 0.00 0.00 0.00 37 1017.9
20200804151524 76 261 2.0 8.0 0.00 0.00 0.00 34 1018.0
20200804151024 77 197 4.0 11.0 0.00 0.00 0.00 34 1018.0
20200804150521 76 232 4.0 8.0 0.00 0.00 0.00 35 1018.1
20200804150052 77 51 2.0 9.0 0.00 0.00 0.00 34 1018.1
20200804145524 77 149 4.0 9.0 0.00 0.00 0.00 33 1018.1
20200804145043 77 1 2.0 10.0 0.00 0.00 0.00 34 1018.1
20200804144531 76 206 6.0 9.0 0.00 0.00 0.00 34 1018.1
20200804144027 76 264 2.0 6.0 0.00 0.00 0.00 35 1018.1
20200804143541 75 296 2.0 8.0 0.00 0.00 0.00 36 1018.1
20200804143032 75 90 1.0 8.0 0.00 0.00 0.00 36 1018.2
20200804142519 75 179 2.0 5.0 0.00 0.00 0.00 37 1018.3
20200804142035 75 20 3.0 9.0 0.00 0.00 0.00 39 1018.2
20200804141531 75 350 4.0 9.0 0.00 0.00 0.00 39 1018.2
20200804141021 75 329 5.0 8.0 0.00 0.00 0.00 36 1018.2
20200804140539 75 40 2.0 5.0 0.00 0.00 0.00 37 1018.3
20200804140022 76 250 1.0 5.0 0.00 0.00 0.00 39 1018.3
20200804135531 75 340 1.0 8.0 0.00 0.00 0.00 40 1018.3
20200804135030 74 279 4.0 8.0 0.00 0.00 0.00 39 1018.3
20200804134528 74 331 2.0 8.0 0.00 0.00 0.00 41 1018.4
20200804134020 74 349 2.0 7.0 0.00 0.00 0.00 42 1018.4
20200804133516 75 278 3.0 7.0 0.00 0.00 0.00 42 1018.4
20200804133029 75 303 2.0 4.0 0.00 0.00 0.00 41 1018.4
20200804132520 74 1 2.0 4.0 0.00 0.00 0.00 41 1018.5
20200804132039 74 269 2.0 7.0 0.00 0.00 0.00 41 1018.5
20200804131526 74 234 4.0 7.0 0.00 0.00 0.00 36 1018.5
20200804131024 74 289 4.0 10.0 0.00 0.00 0.00 39 1018.6
20200804130520 73 269 3.0 10.0 0.00 0.00 0.00 41 1018.7
20200804130031 73 296 4.0 7.0 0.00 0.00 0.00 41 1018.7
20200804125526 72 1 1.0 8.0 0.00 0.00 0.00 43 1018.7
20200804125047 73 279 1.0 8.0 0.00 0.00 0.00 43 1018.8
20200804124531 73 250 1.0 6.0 0.00 0.00 0.00 44 1018.7
20200804124031 73 136 2.0 6.0 0.00 0.00 0.00 42 1018.7
20200804123521 73 1 2.0 7.0 0.00 0.00 0.00 42 1018.8
20200804123031 73 8 2.0 7.0 0.00 0.00 0.00 42 1018.8
20200804122517 73 89 3.0 9.0 0.00 0.00 0.00 39 1018.8
20200804122017 73 279 4.0 8.0 0.00 0.00 0.00 39 1018.8
20200804121529 73 179 3.0 10.0 0.00 0.00 0.00 40 1018.8
20200804121018 73 271 6.0 10.0 0.00 0.00 0.00 39 1018.8
20200804120533 74 237 3.0 8.0 0.00 0.00 0.00 42 1018.8
20200804120052 73 269 4.0 8.0 0.00 0.00 0.00 43 1018.7
20200804115527 73 352 2.0 7.0 0.00 0.00 0.00 44 1018.8
20200804115026 73 331 2.0 5.0 0.00 0.00 0.00 41 1018.8
20200804114540 73 349 1.0 5.0 0.00 0.00 0.00 44 1018.8
20200804114027 72 234 3.0 8.0 0.00 0.00 0.00 44 1018.8
20200804113524 70 248 4.0 9.0 0.00 0.00 0.00 43 1018.9
20200804113036 72 234 5.0 9.0 0.00 0.00 0.00 43 1018.9
20200804112522 70 336 1.0 5.0 0.00 0.00 0.00 47 1018.9
20200804112039 70 250 2.0 4.0 0.00 0.00 0.00 45 1019.0
20200804111529 72 314 2.0 5.0 0.00 0.00 0.00 43 1018.9
20200804111026 72 28 2.0 5.0 0.00 0.00 0.00 47 1019.0
20200804110522 71 254 2.0 9.0 0.00 0.00 0.00 44 1018.9
20200804110030 71 319 3.0 9.0 0.00 0.00 0.00 44 1019.0
20200804105524 71 152 1.0 5.0 0.00 0.00 0.00 44 1019.0
20200804105043 72 46 2.0 5.0 0.00 0.00 0.00 43 1019.0
20200804104529 71 90 1.0 5.0 0.00 0.00 0.00 45 1019.1
20200804104027 71 352 2.0 5.0 0.00 0.00 0.00 45 1019.1
20200804103514 71 308 2.0 9.0 0.00 0.00 0.00 45 1019.0
20200804103034 71 1 3.0 9.0 0.00 0.00 0.00 43 1018.9
20200804102534 71 269 1.0 10.0 0.00 0.00 0.00 46 1018.9
20200804102029 70 269 2.0 5.0 0.00 0.00 0.00 49 1019.0
20200804101523 70 331 2.0 7.0 0.00 0.00 0.00 53 1019.0
20200804101039 70 314 2.0 7.0 0.00 0.00 0.00 52 1019.0
20200804100526 69 223 4.0 9.0 0.00 0.00 0.00 50 1019.0
20200804100042 69 241 5.0 9.0 0.00 0.00 0.00 51 1019.0
20200804095529 69 234 4.0 8.0 0.00 0.00 0.00 52 1018.9
20200804095019 70 250 3.0 8.0 0.00 0.00 0.00 52 1018.9
20200804094537 70 179 2.0 5.0 0.00 0.00 0.00 55 1018.9
20200804094026 70 314 1.0 4.0 0.00 0.00 0.00 54 1018.9
20200804093521 69 1 2.0 4.0 0.00 0.00 0.00 56 1019.0
20200804093028 68 136 1.0 4.0 0.00 0.00 0.00 54 1019.0
20200804092525 68 306 2.0 6.0 0.00 0.00 0.00 58 1019.1
20200804092046 66 216 2.0 6.0 0.00 0.00 0.00 61 1019.1
20200804091532 67 314 1.0 8.0 0.00 0.00 0.00 60 1019.1
20200804091031 67 250 3.0 8.0 0.00 0.00 0.00 58 1019.1
20200804090531 67 285 3.0 7.0 0.00 0.00 0.00 60 1019.0
20200804090037 65 269 1.0 5.0 0.00 0.00 0.00 65 1019.0
20200804085527 66 185 3.0 5.0 0.00 0.00 0.00 61 1019.0
20200804085019 65 269 2.0 6.0 0.00 0.00 0.00 63 1019.1
20200804084514 66 283 3.0 6.0 0.00 0.00 0.00 64 1019.1
20200804084033 65 89 1.0 5.0 0.00 0.00 0.00 64 1019.0
20200804083520 66 291 1.0 4.0 0.00 0.00 0.00 64 1019.0
20200804083029 66 324 2.0 3.0 0.00 0.00 0.00 63 1019.0
20200804082515 65 283 1.0 4.0 0.00 0.00 0.00 68 1019.1
20200804082034 63 269 2.0 4.0 0.00 0.00 0.00 73 1019.0
20200804081529 63 344 1.0 4.0 0.00 0.00 0.00 74 1019.1
20200804081021 63 287 1.0 4.0 0.00 0.00 0.00 71 1019.2
20200804080517 63 303 1.0 4.0 0.00 0.00 0.00 73 1019.1
20200804080057 63 285 2.0 4.0 0.00 0.00 0.00 74 1019.2
20200804075526 63 201 1.0 4.0 0.00 0.00 0.00 74 1019.2
20200804075026 63 46 1.0 4.0 0.00 0.00 0.00 73 1019.2
20200804074542 64 269 1.0 4.0 0.00 0.00 0.00 72 1019.2
20200804074032 65 246 2.0 8.0 0.00 0.00 0.00 71 1019.2
20200804073528 65 303 2.0 8.0 0.00 0.00 0.00 73 1019.1
20200804073040 64 303 1.0 7.0 0.00 0.00 0.00 72 1019.1
20200804072522 64 321 1.0 5.0 0.00 0.00 0.00 74 1019.1
20200804072038 64 257 1.0 5.0 0.00 0.00 0.00 75 1019.1
20200804071524 63 269 1.0 3.0 0.00 0.00 0.00 77 1019.0
20200804071023 63 321 1.0 4.0 0.00 0.00 0.00 77 1019.1
20200804070517 63 199 2.0 4.0 0.00 0.00 0.00 76 1019.1
20200804070028 63 314 2.0 3.0 0.00 0.00 0.00 78 1019.1
20200804065518 62 152 1.0 4.0 0.00 0.00 0.00 80 1019.0
20200804065036 62 314 2.0 4.0 0.00 0.00 0.00 80 1019.0
20200804064519 61 250 2.0 3.0 0.00 0.00 0.00 80 1019.0
20200804064017 61 269 1.0 3.0 0.00 0.00 0.00 81 1019.0
20200804063528 60 314 1.0 4.0 0.00 0.00 0.00 82 1019.1
20200804063040 60 269 1.0 4.0 0.00 0.00 0.00 83 1019.0
20200804062526 59 269 1.0 4.0 0.00 0.00 0.00 84 1018.9
20200804062025 59 269 2.0 5.0 0.00 0.00 0.00 84 1018.8
20200804061518 58 269 3.0 5.0 0.00 0.00 0.00 86 1018.8
20200804061034 57 248 2.0 4.0 0.00 0.00 0.00 87 1018.7
20200804060521 57 223 2.0 4.0 0.00 0.00 0.00 88 1018.7
20200804060036 57 283 2.0 4.0 0.00 0.00 0.00 87 1018.6
20200804055520 57 250 1.0 5.0 0.00 0.00 0.00 88 1018.6
20200804055035 57 263 3.0 6.0 0.00 0.00 0.00 88 1018.6
20200804054526 57 260 2.0 6.0 0.00 0.00 0.00 88 1018.5
20200804054041 57 253 3.0 5.0 0.00 0.00 0.00 88 1018.4
20200804053528 57 203 2.0 5.0 0.00 0.00 0.00 89 1018.4
20200804053045 57 241 2.0 4.0 0.00 0.00 0.00 89 1018.4
20200804052528 57 269 2.0 4.0 0.00 0.00 0.00 89 1018.3
20200804052025 56 161 2.0 4.0 0.00 0.00 0.00 90 1018.3
20200804051542 56 275 2.0 4.0 0.00 0.00 0.00 90 1018.3
20200804051029 56 269 2.0 4.0 0.00 0.00 0.00 90 1018.2
20200804050525 56 269 2.0 4.0 0.00 0.00 0.00 90 1018.1
20200804050031 56 287 2.0 4.0 0.00 0.00 0.00 90 1018.1
20200804045520 56 278 2.0 4.0 0.00 0.00 0.00 91 1018.0
20200804045020 55 250 2.0 4.0 0.00 0.00 0.00 91 1017.9
20200804044530 55 276 2.0 4.0 0.00 0.00 0.00 91 1018.0
20200804044026 55 259 2.0 4.0 0.00 0.00 0.00 91 1017.9
20200804043521 55 228 2.0 3.0 0.00 0.00 0.00 91 1017.8
20200804043032 55 269 2.0 4.0 0.00 0.00 0.00 91 1017.7
20200804042518 55 256 2.0 4.0 0.00 0.00 0.00 91 1017.7
20200804042035 55 269 3.0 4.0 0.00 0.00 0.00 91 1017.7
20200804041530 55 241 2.0 4.0 0.00 0.00 0.00 91 1017.6
20200804041028 55 250 2.0 4.0 0.00 0.00 0.00 91 1017.6
20200804040519 55 269 2.0 4.0 0.00 0.00 0.00 91 1017.6
20200804040035 54 274 2.0 4.0 0.00 0.00 0.00 91 1017.5
20200804035516 54 251 3.0 4.0 0.00 0.00 0.00 91 1017.5
20200804035016 54 250 2.0 4.0 0.00 0.00 0.00 91 1017.4
20200804034527 54 246 2.0 4.0 0.00 0.00 0.00 91 1017.3
20200804034017 54 229 1.0 4.0 0.00 0.00 0.00 91 1017.2
20200804033515 54 259 2.0 4.0 0.00 0.00 0.00 91 1017.2
20200804033027 54 296 2.0 3.0 0.00 0.00 0.00 91 1017.2
20200804032516 54 241 1.0 3.0 0.00 0.00 0.00 91 1017.3
20200804032037 54 231 2.0 3.0 0.00 0.00 0.00 91 1017.2
20200804031520 54 250 2.0 3.0 0.00 0.00 0.00 90 1017.2
20200804031017 54 241 2.0 3.0 0.00 0.00 0.00 90 1017.2
20200804030531 54 246 2.0 4.0 0.00 0.00 0.00 90 1017.2
20200804030021 54 223 2.0 4.0 0.00 0.00 0.00 90 1017.2
20200804025517 54 231 2.0 4.0 0.00 0.00 0.00 90 1017.1
20200804025036 54 269 3.0 4.0 0.00 0.00 0.00 90 1017.1
20200804024524 54 254 2.0 3.0 0.00 0.00 0.00 90 1017.0
20200804024023 54 237 2.0 3.0 0.00 0.00 0.00 90 1016.9
20200804023537 54 250 2.0 4.0 0.00 0.00 0.00 90 1017.0
20200804023021 55 258 3.0 4.0 0.00 0.00 0.00 89 1016.9
20200804022517 55 237 1.0 3.0 0.00 0.00 0.00 90 1016.9
20200804022016 55 241 2.0 4.0 0.00 0.00 0.00 89 1017.0
20200804021531 55 285 2.0 4.0 0.00 0.00 0.00 89 1016.8
20200804021020 55 254 2.0 4.0 0.00 0.00 0.00 89 1016.8
20200804020514 55 260 2.0 4.0 0.00 0.00 0.00 90 1016.9
20200804020022 55 246 3.0 4.0 0.00 0.00 0.00 89 1016.9
20200804015519 55 269 1.0 3.0 0.00 0.00 0.00 89 1016.9
20200804015035 55 314 1.0 3.0 0.00 0.00 0.00 89 1016.9
20200804014525 55 250 2.0 3.0 0.00 0.00 0.00 89 1016.9
20200804014019 56 283 1.0 2.0 0.00 0.00 0.00 89 1016.8
20200804013515 55 269 0.0 2.0 0.00 0.00 0.00 89 1016.8
20200804013025 56 46 0.0 2.0 0.00 0.00 0.00 89 1016.8
20200804012536 56 269 1.0 2.0 0.00 0.00 0.00 89 1016.8
20200804012028 56 269 0.0 2.0 0.00 0.00 0.00 89 1016.9
20200804011521 56 179 1.0 2.0 0.00 0.00 0.00 89 1016.8
20200804011018 56 291 1.0 2.0 0.00 0.00 0.00 88 1017.0
20200804010534 56 234 1.0 3.0 0.00 0.00 0.00 88 1016.9
20200804010026 56 296 1.0 3.0 0.00 0.00 0.00 89 1016.9
20200804005515 56 296 0.0 2.0 0.00 0.00 0.00 88 1016.9
20200804005031 57 179 0.0 2.0 0.00 0.00 0.00 87 1016.8
20200804004527 57 179 1.0 3.0 0.00 0.00 0.00 87 1016.9
20200804004022 57 324 1.0 2.0 0.00 0.00 0.00 87 1016.9
20200804003518 58 179 0.0 2.0 0.00 0.00 0.00 87 1016.9
20200804003025 58 206 1.0 2.0 0.00 0.00 0.00 86 1016.9
20200804002532 58 303 1.0 5.0 0.00 0.00 0.00 86 1017.0
20200804002029 58 241 2.0 5.0 0.00 0.00 0.00 86 1017.0
20200804001522 59 296 1.0 3.0 0.00 0.00 0.00 85 1017.0
20200804001036 59 250 1.0 3.0 0.00 0.00 0.00 85 1016.9
20200804000530 59 269 1.0 2.0 0.00 0.00 0.00 85 1016.9
20200804000022 59 241 1.0 6.0 0.00 0.00 0.00 84 1017.0
20200803235535 59 303 1.0 5.0 0.00 0.00 0.00 83 1017.0
20200803235035 59 287 1.0 3.0 0.00 0.00 0.00 83 1017.1
20200803234523 60 314 1.0 3.0 0.00 0.00 0.00 83 1017.1
20200803234023 60 269 1.0 4.0 0.00 0.00 0.00 82 1017.0
20200803233541 60 303 2.0 4.0 0.00 0.00 0.00 82 1017.1
20200803233034 60 269 2.0 4.0 0.00 0.00 0.00 82 1017.1
20200803232518 60 314 2.0 4.0 0.00 0.00 0.00 82 1017.1
20200803232037 60 314 1.0 3.0 0.00 0.00 0.00 82 1017.1
20200803231533 60 314 1.0 3.0 0.00 0.00 0.00 82 1017.0
20200803231031 60 269 1.0 3.0 0.00 0.00 0.00 81 1017.0
20200803230519 60 296 2.0 4.0 0.00 0.00 0.00 81 1016.9
20200803230028 60 287 2.0 5.0 0.00 0.00 0.00 81 1017.0
20200803225519 60 269 1.0 6.0 0.00 0.00 0.00 80 1016.9
20200803225018 60 241 3.0 8.0 0.00 0.00 0.00 80 1016.9
20200803224537 60 281 3.0 8.0 0.00 0.00 0.00 80 1016.9
20200803224027 60 269 2.0 5.0 0.00 0.00 0.00 81 1016.8
20200803223521 60 314 1.0 5.0 0.00 0.00 0.00 80 1016.7
20200803223032 60 269 2.0 5.0 0.00 0.00 0.00 81 1016.6
20200803222526 59 263 2.0 5.0 0.00 0.00 0.00 81 1016.6
20200803222040 59 287 3.0 5.0 0.00 0.00 0.00 81 1016.6
20200803221526 59 296 2.0 4.0 0.00 0.00 0.00 81 1016.6
20200803221025 59 296 2.0 4.0 0.00 0.00 0.00 81 1016.4
20200803220527 59 269 2.0 4.0 0.00 0.00 0.00 80 1016.5